Time,TemperatureF,DewpointF,PressureIn,WindDirection,WindDirectionDegrees,WindSpeedMPH,WindSpeedGustMPH,Humidity,HourlyPrecipIn,Conditions,Clouds,dailyrainin,SoftwareType,DateUTC
2013-02-06 00:02:00,29.5,14.0,30.07,SW,214,7.0,9.0,52,0.00,,,0.00,weatherlink.com 1.10,2013-02-06 07:02:00,
2013-02-06 00:17:00,28.8,13.0,30.07,WSW,241,4.0,5.0,53,0.00,,,0.00,weatherlink.com 1.10,2013-02-06 07:17:00,
2013-02-06 00:32:00,30.6,13.0,30.07,NW,322,6.0,8.0,49,0.00,,,0.00,weatherlink.com 1.10,2013-02-06 07:32:00,
2013-02-06 00:47:00,29.7,13.0,30.06,West,260,0.0,6.0,51,0.00,,,0.00,weatherlink.com 1.10,2013-02-06 07:47:00,
2013-02-06 01:02:00,29.4,14.0,30.07,WSW,257,2.0,8.0,54,0.00,,,0.00,weatherlink.com 1.10,2013-02-06 08:02:00,
2013-02-06 01:17:00,29.5,14.0,30.07,NW,311,2.0,4.0,53,0.00,,,0.00,weatherlink.com 1.10,2013-02-06 08:17:00,
2013-02-06 01:32:00,27.6,14.0,30.06,West,280,3.0,6.0,57,0.00,,,0.00,weatherlink.com 1.10,2013-02-06 08:32:00,
2013-02-06 01:47:00,27.9,13.0,30.07,West,267,6.0,8.0,54,0.00,,,0.00,weatherlink.com 1.10,2013-02-06 08:47:00,
2013-02-06 02:02:00,27.5,13.0,30.07,SSW,206,2.0,8.0,54,0.00,,,0.00,weatherlink.com 1.10,2013-02-06 09:02:00,
2013-02-06 02:17:00,27.8,13.0,30.07,SSW,211,3.0,12.0,54,0.00,,,0.00,weatherlink.com 1.10,2013-02-06 09:17:00,
2013-02-06 02:32:00,27.6,13.0,30.07,West,268,2.0,9.0,55,0.00,,,0.00,weatherlink.com 1.10,2013-02-06 09:32:00,
2013-02-06 02:47:00,27.9,14.0,30.07,SW,220,8.0,8.0,56,0.00,,,0.00,weatherlink.com 1.10,2013-02-06 09:47:00,
2013-02-06 03:02:00,28.1,13.0,30.06,WSW,237,2.0,4.0,54,0.00,,,0.00,weatherlink.com 1.10,2013-02-06 10:02:00,
2013-02-06 03:17:00,27.3,13.0,30.06,West,276,2.0,4.0,55,0.00,,,0.00,weatherlink.com 1.10,2013-02-06 10:17:00,
2013-02-06 03:32:00,29.0,13.0,30.06,SW,226,7.0,8.0,51,0.00,,,0.00,weatherlink.com 1.10,2013-02-06 10:32:00,
2013-02-06 03:47:00,30.1,12.0,30.06,East,94,2.0,6.0,47,0.00,,,0.00,weatherlink.com 1.10,2013-02-06 10:47:00,
2013-02-06 04:02:00,27.5,14.0,30.06,SW,214,2.0,7.0,56,0.00,,,0.00,weatherlink.com 1.10,2013-02-06 11:02:00,
2013-02-06 04:17:00,27.2,13.0,30.07,NNE,26,2.0,4.0,55,0.00,,,0.00,weatherlink.com 1.10,2013-02-06 11:17:00,
2013-02-06 04:33:00,27.9,13.0,30.08,SW,216,2.0,6.0,54,0.00,,,0.00,weatherlink.com 1.10,2013-02-06 11:33:00,
2013-02-06 04:47:00,27.8,13.0,30.08,West,275,1.0,6.0,55,0.00,,,0.00,weatherlink.com 1.10,2013-02-06 11:47:00,
2013-02-06 05:02:00,30.0,12.0,30.08,NNE,12,1.0,12.0,48,0.00,,,0.00,weatherlink.com 1.10,2013-02-06 12:02:00,
2013-02-06 05:17:00,31.9,13.0,30.08,WSW,256,5.0,5.0,46,0.00,,,0.00,weatherlink.com 1.10,2013-02-06 12:17:00,
2013-02-06 05:32:00,28.8,13.0,30.08,SW,218,5.0,6.0,52,0.00,,,0.00,weatherlink.com 1.10,2013-02-06 12:32:00,
2013-02-06 05:47:00,30.9,13.0,30.09,SSE,154,3.0,7.0,47,0.00,,,0.00,weatherlink.com 1.10,2013-02-06 12:47:00,
2013-02-06 06:02:00,30.3,13.0,30.09,South,173,3.0,11.0,48,0.00,,,0.00,weatherlink.com 1.10,2013-02-06 13:02:00,
2013-02-06 06:17:00,30.4,11.0,30.09,SW,216,6.0,17.0,44,0.00,,,0.00,weatherlink.com 1.10,2013-02-06 13:17:00,
2013-02-06 06:32:00,31.0,11.0,30.10,NW,314,5.0,11.0,43,0.00,,,0.00,weatherlink.com 1.10,2013-02-06 13:32:00,
2013-02-06 06:47:00,30.6,9.0,30.10,SW,233,2.0,11.0,41,0.00,,,0.00,weatherlink.com 1.10,2013-02-06 13:47:00,
2013-02-06 07:02:00,28.5,10.0,30.11,West,278,0.0,7.0,46,0.00,,,0.00,weatherlink.com 1.10,2013-02-06 14:02:00,
2013-02-06 07:18:00,26.7,11.0,30.11,SW,235,1.0,9.0,51,0.00,,,0.00,weatherlink.com 1.10,2013-02-06 14:18:00,
2013-02-06 07:32:00,26.6,10.0,30.12,ESE,122,2.0,9.0,49,0.00,,,0.00,weatherlink.com 1.10,2013-02-06 14:32:00,
2013-02-06 07:48:00,26.3,11.0,30.13,ESE,102,2.0,8.0,52,0.00,,,0.00,weatherlink.com 1.10,2013-02-06 14:48:00,
2013-02-06 08:03:00,26.7,12.0,30.14,WNW,293,2.0,5.0,54,0.00,,,0.00,weatherlink.com 1.10,2013-02-06 15:03:00,
2013-02-06 08:18:00,30.0,13.0,30.15,West,260,3.0,5.0,49,0.00,,,0.00,weatherlink.com 1.10,2013-02-06 15:18:00,
2013-02-06 08:33:00,30.9,11.0,30.16,SSW,210,0.0,3.0,44,0.00,,,0.00,weatherlink.com 1.10,2013-02-06 15:33:00,
2013-02-06 08:48:00,30.7,13.0,30.16,SSW,210,4.0,5.0,48,0.00,,,0.00,weatherlink.com 1.10,2013-02-06 15:48:00,
2013-02-06 09:03:00,31.0,13.0,30.16,SSW,210,2.0,2.0,47,0.00,,,0.00,weatherlink.com 1.10,2013-02-06 16:03:00,
2013-02-06 09:18:00,30.6,13.0,30.16,SSW,210,3.0,4.0,49,0.00,,,0.00,weatherlink.com 1.10,2013-02-06 16:18:00,
2013-02-06 09:33:00,32.1,13.0,30.16,East,90,8.0,9.0,45,0.00,,,0.00,weatherlink.com 1.10,2013-02-06 16:33:00,
2013-02-06 09:48:00,34.1,15.0,30.16,SSW,207,1.0,5.0,45,0.00,,,0.00,weatherlink.com 1.10,2013-02-06 16:48:00,
2013-02-06 10:03:00,38.0,12.0,30.16,ENE,77,2.0,4.0,34,0.00,,,0.00,weatherlink.com 1.10,2013-02-06 17:03:00,
2013-02-06 10:18:00,40.2,11.0,30.16,ENE,77,1.0,4.0,30,0.00,,,0.00,weatherlink.com 1.10,2013-02-06 17:18:00,
2013-02-06 10:33:00,42.6,11.0,30.16,ENE,77,2.0,2.0,27,0.00,,,0.00,weatherlink.com 1.10,2013-02-06 17:33:00,
2013-02-06 10:48:00,43.1,9.0,30.16,ENE,76,4.0,4.0,25,0.00,,,0.00,weatherlink.com 1.10,2013-02-06 17:48:00,
2013-02-06 11:03:00,39.3,13.0,30.16,ESE,105,4.0,11.0,34,0.00,,,0.00,weatherlink.com 1.10,2013-02-06 18:03:00,
2013-02-06 11:18:00,40.2,12.0,30.16,East,93,3.0,8.0,31,0.00,,,0.00,weatherlink.com 1.10,2013-02-06 18:18:00,
2013-02-06 11:33:00,41.3,11.0,30.16,East,91,7.0,8.0,29,0.00,,,0.00,weatherlink.com 1.10,2013-02-06 18:33:00,
2013-02-06 11:48:00,39.9,14.0,30.17,East,101,3.0,9.0,35,0.00,,,0.00,weatherlink.com 1.10,2013-02-06 18:48:00,
2013-02-06 12:03:00,40.6,13.0,30.16,ESE,113,5.0,10.0,32,0.00,,,0.00,weatherlink.com 1.10,2013-02-06 19:03:00,
2013-02-06 12:33:00,41.6,11.0,30.15,ESE,108,3.0,9.0,28,0.00,,,0.00,weatherlink.com 1.10,2013-02-06 19:33:00,
2013-02-06 12:48:00,42.3,10.0,30.16,NE,39,3.0,5.0,27,0.00,,,0.00,weatherlink.com 1.10,2013-02-06 19:48:00,
2013-02-06 13:03:00,43.6,11.0,30.15,East,87,0.0,6.0,27,0.00,,,0.00,weatherlink.com 1.10,2013-02-06 20:03:00,
2013-02-06 13:18:00,42.5,11.0,30.15,NNE,12,9.0,9.0,28,0.00,,,0.00,weatherlink.com 1.10,2013-02-06 20:18:00,
2013-02-06 13:33:00,41.3,10.0,30.16,West,262,3.0,10.0,28,0.00,,,0.00,weatherlink.com 1.10,2013-02-06 20:33:00,
2013-02-06 13:48:00,41.9,12.0,30.15,NW,307,5.0,9.0,30,0.00,,,0.00,weatherlink.com 1.10,2013-02-06 20:48:00,
2013-02-06 14:03:00,41.3,11.0,30.15,NNW,339,1.0,8.0,29,0.00,,,0.00,weatherlink.com 1.10,2013-02-06 21:03:00,
2013-02-06 14:18:00,41.5,13.0,30.15,North,4,0.0,3.0,31,0.00,,,0.00,weatherlink.com 1.10,2013-02-06 21:18:00,
2013-02-06 14:33:00,42.2,11.0,30.16,North,4,2.0,3.0,28,0.00,,,0.00,weatherlink.com 1.10,2013-02-06 21:33:00,
2013-02-06 14:48:00,41.2,11.0,30.16,NNE,21,3.0,6.0,29,0.00,,,0.00,weatherlink.com 1.10,2013-02-06 21:48:00,
2013-02-06 15:03:00,40.6,12.0,30.16,NE,35,4.0,6.0,31,0.00,,,0.00,weatherlink.com 1.10,2013-02-06 22:03:00,
2013-02-06 15:18:00,41.6,14.0,30.16,NE,36,0.0,2.0,32,0.00,,,0.00,weatherlink.com 1.10,2013-02-06 22:18:00,
2013-02-06 15:33:00,42.5,12.0,30.16,NE,36,0.0,2.0,29,0.00,,,0.00,weatherlink.com 1.10,2013-02-06 22:33:00,
2013-02-06 15:48:00,45.2,10.0,30.17,NE,36,1.0,2.0,24,0.00,,,0.00,weatherlink.com 1.10,2013-02-06 22:48:00,
2013-02-06 16:03:00,43.6,10.0,30.17,NNE,28,3.0,4.0,25,0.00,,,0.00,weatherlink.com 1.10,2013-02-06 23:03:00,
2013-02-06 16:18:00,43.3,10.0,30.17,NE,38,2.0,4.0,25,0.00,,,0.00,weatherlink.com 1.10,2013-02-06 23:18:00,
2013-02-06 16:33:00,42.8,9.0,30.18,North,354,4.0,7.0,25,0.00,,,0.00,weatherlink.com 1.10,2013-02-06 23:33:00,
2013-02-06 16:48:00,42.3,11.0,30.19,NW,313,3.0,7.0,28,0.00,,,0.00,weatherlink.com 1.10,2013-02-06 23:48:00,
2013-02-06 17:03:00,39.2,11.0,30.19,SW,236,5.0,7.0,32,0.00,,,0.00,weatherlink.com 1.10,2013-02-07 00:03:00,
2013-02-06 17:18:00,37.2,7.0,30.20,SW,230,3.0,8.0,28,0.00,,,0.00,weatherlink.com 1.10,2013-02-07 00:18:00,
2013-02-06 17:33:00,36.0,8.0,30.21,SW,230,0.0,4.0,31,0.00,,,0.00,weatherlink.com 1.10,2013-02-07 00:33:00,
2013-02-06 17:48:00,34.7,9.0,30.23,NNW,338,0.0,1.0,34,0.00,,,0.00,weatherlink.com 1.10,2013-02-07 00:48:00,
2013-02-06 18:03:00,35.6,12.0,30.25,NNE,17,4.0,9.0,38,0.00,,,0.00,weatherlink.com 1.10,2013-02-07 01:03:00,
2013-02-06 18:18:00,34.9,13.0,30.26,North,354,2.0,7.0,40,0.00,,,0.00,weatherlink.com 1.10,2013-02-07 01:18:00,
2013-02-06 18:33:00,31.8,14.0,30.26,West,276,2.0,6.0,49,0.00,,,0.00,weatherlink.com 1.10,2013-02-07 01:33:00,
2013-02-06 18:48:00,30.3,14.0,30.26,WSW,251,4.0,4.0,51,0.00,,,0.00,weatherlink.com 1.10,2013-02-07 01:48:00,
2013-02-06 19:03:00,29.0,12.0,30.27,NW,310,0.0,4.0,49,0.00,,,0.00,weatherlink.com 1.10,2013-02-07 02:03:00,
2013-02-06 19:19:00,27.5,14.0,30.28,West,270,0.0,6.0,56,0.00,,,0.00,weatherlink.com 1.10,2013-02-07 02:19:00,
2013-02-06 19:34:00,28.1,13.0,30.29,SW,229,5.0,8.0,54,0.00,,,0.00,weatherlink.com 1.10,2013-02-07 02:34:00,
2013-02-06 19:49:00,27.0,13.0,30.30,SW,214,4.0,8.0,57,0.00,,,0.00,weatherlink.com 1.10,2013-02-07 02:49:00,
2013-02-06 20:04:00,25.4,12.0,30.30,SW,230,6.0,7.0,56,0.00,,,0.00,weatherlink.com 1.10,2013-02-07 03:04:00,
2013-02-06 20:19:00,25.1,12.0,30.30,WSW,251,5.0,6.0,57,0.00,,,0.00,weatherlink.com 1.10,2013-02-07 03:19:00,
2013-02-06 20:34:00,24.2,11.0,30.31,SW,229,2.0,7.0,58,0.00,,,0.00,weatherlink.com 1.10,2013-02-07 03:34:00,
2013-02-06 20:49:00,23.3,11.0,30.32,SW,229,0.0,1.0,60,0.00,,,0.00,weatherlink.com 1.10,2013-02-07 03:49:00,
2013-02-06 21:04:00,22.1,11.0,30.33,SW,216,2.0,7.0,62,0.00,,,0.00,weatherlink.com 1.10,2013-02-07 04:04:00,
2013-02-06 21:19:00,22.9,10.0,30.34,South,178,0.0,5.0,58,0.00,,,0.00,weatherlink.com 1.10,2013-02-07 04:19:00,
2013-02-06 21:34:00,21.9,8.0,30.35,WSW,243,2.0,4.0,56,0.00,,,0.00,weatherlink.com 1.10,2013-02-07 04:34:00,
2013-02-06 21:49:00,21.3,9.0,30.36,SW,231,2.0,5.0,59,0.00,,,0.00,weatherlink.com 1.10,2013-02-07 04:49:00,
2013-02-06 22:04:00,21.8,8.0,30.38,West,261,0.0,4.0,56,0.00,,,0.00,weatherlink.com 1.10,2013-02-07 05:04:00,
2013-02-06 22:19:00,20.2,8.0,30.38,West,270,5.0,7.0,60,0.00,,,0.00,weatherlink.com 1.10,2013-02-07 05:19:00,
2013-02-06 22:34:00,21.9,7.0,30.38,SW,228,4.0,8.0,53,0.00,,,0.00,weatherlink.com 1.10,2013-02-07 05:34:00,
2013-02-06 22:49:00,23.3,8.0,30.39,West,261,6.0,8.0,51,0.00,,,0.00,weatherlink.com 1.10,2013-02-07 05:49:00,
2013-02-06 23:04:00,26.1,8.0,30.39,WSW,239,5.0,12.0,46,0.00,,,0.00,weatherlink.com 1.10,2013-02-07 06:04:00,
2013-02-06 23:19:00,26.1,5.0,30.40,SW,218,6.0,10.0,40,0.00,,,0.00,weatherlink.com 1.10,2013-02-07 06:19:00,
2013-02-06 23:34:00,26.7,4.0,30.40,SW,234,7.0,10.0,37,0.00,,,0.00,weatherlink.com 1.10,2013-02-07 06:34:00,
2013-02-06 23:50:00,26.3,6.0,30.40,SW,218,4.0,9.0,43,0.00,,,0.00,weatherlink.com 1.10,2013-02-07 06:50:00,